Wetbulb
30.00 31.95 33.78 34.17 34.23 35.99 34.84 34.08 35.25 36.69 37.69 38.83 40.42 42.43 45.26 48.27 52.07 55.28 57.31 59.01 58.74 58.65 59.02 58.80 58.38 58.80 58.28 58.20 58.26 57.71 56.63 55.87 53.39 55.08 55.99 55.14 50.41 50.82 46.69 45.43 44.85 45.03 44.60
28.17 29.18 31.84 31.99 31.18 31.51 32.34 31.41 32.98 33.80 35.37 36.69 38.70 39.51 41.42 43.65 45.90 48.38 51.74 55.87 57.32 57.66 58.19 58.17 57.93 58.31 57.95 58.27 57.96 57.16 56.91 56.92 55.15 53.53 55.02 53.52 51.82 50.27 48.43 44.34 41.17 42.05 43.55
26.49 27.05 28.33 28.56 27.02 27.14 27.79 28.62 29.80 30.75 32.17 34.76 36.57 37.84 38.85 40.25 41.41 43.84 46.61 50.28 49.79 51.86 55.04 57.05 57.67 57.91 57.24 57.64 57.69 57.22 57.21 56.76 56.45 54.78 54.23 49.55 43.15 39.43 38.39 36.36 37.99 38.06 39.07
24.79 24.64 24.76 25.34 24.20 24.20 25.15 26.00 26.99 27.81 28.90 31.57 34.17 36.45 37.76 38.57 39.65 41.17 42.33 42.57 43.20 45.07 48.03 50.34 52.72 56.59 57.16 57.37 56.95 56.81 56.68 56.01 55.54 54.70 53.81 51.30 39.21 35.58 36.05 35.69 34.78 33.51 34.38
22.26 22.52 22.80 22.86 22.40 22.60 23.05 23.65 24.41 25.26 26.63 28.61 30.82 33.53 36.15 37.26 38.60 38.91 39.29 39.58 39.90 40.91 42.96 44.78 47.50 46.74 41.88 44.90 52.96 56.39 56.14 55.13 53.48 49.60 45.27 36.50 35.20 33.03 35.49 35.87 38.73 33.73 32.72
19.78 21.02 20.67 20.64 21.05 21.18 21.50 21.77 22.35 23.21 23.65 24.84 26.39 30.01 32.77 35.88 37.41 38.02 38.90 39.28 39.53 39.52 39.87 41.62 43.50 41.25 43.98 42.99 43.53 43.35 45.20 50.21 49.20 42.17 39.89 39.00 40.00 37.03 37.13 36.47 35.14 33.35 34.87
19.37 19.09 18.68 18.69 18.41 19.13 19.83 19.94 20.28 20.45 21.53 22.26 24.17 28.33 30.19 32.51 36.17 37.62 37.65 37.76 38.39 39.34 39.85 40.01 40.65 41.68 39.64 42.62 42.88 42.49 41.74 42.00 44.33 48.53 43.24 41.29 37.08 40.41 37.24 34.23 34.16 34.78 35.47
17.67 17.39 17.36 16.97 16.40 17.54 17.60 17.97 17.93 19.04 19.65 20.68 22.86 25.74 28.04 31.09 34.53 35.88 36.48 37.02 37.70 38.38 39.21 39.33 39.09 39.12 39.96 39.19 40.98 39.98 39.27 38.44 38.53 39.31 41.66 40.98 42.92 40.65 40.39 37.19 37.08 33.49 31.26
15.43 15.02 15.66 15.53 15.36 15.72 16.15 16.38 17.66 18.33 18.99 20.80 23.57 25.09 26.43 28.98 33.61 35.01 36.28 35.67 35.27 35.63 36.52 37.28 37.69 37.35 38.31 39.17 37.29 36.21 36.55 36.06 36.44 38.98 39.48 40.30 41.34 41.46 38.38 35.55 33.42 34.27 30.46
13.38 13.48 13.87 14.02 13.94 14.31 15.57 16.77 17.94 18.39 20.70 23.17 24.19 27.15 29.23 30.67 33.81 35.14 36.19 35.30 34.26 34.66 35.81 35.45 34.52 35.90 37.36 38.28 35.63 35.14 34.87 35.87 33.57 32.88 32.90 35.76 37.27 37.56 37.98 35.78 36.08 35.41 30.36
11.60 11.97 11.83 12.53 13.39 15.54 16.77 16.48 17.65 19.10 20.85 22.34 25.74 26.57 27.23 28.36 30.36 34.59 36.23 34.99 34.31 34.13 34.34 34.57 35.31 36.86 37.58 38.05 38.83 34.65 35.25 34.22 35.02 33.17 32.20 31.91 32.02 32.28 32.40 32.86 33.82 35.66 32.82
9.93 9.19 9.81 11.98 14.28 15.73 15.00 16.24 18.19 20.96 22.25 20.61 19.93 20.50 23.22 25.15 28.64 32.09 35.14 36.42 36.79 33.96 33.84 34.58 34.89 36.62 37.05 37.53 37.48 38.31 38.06 35.47 32.83 32.39 31.96 31.10 30.91 30.68 30.90 31.35 31.82 31.56 31.76
6.33 6.23 9.41 11.74 13.33 14.06 13.49 14.74 16.77 17.71 19.46 18.65 18.12 17.46 19.48 22.18 23.95 29.18 32.58 35.34 35.57 33.24 33.33 34.21 36.00 36.32 36.74 36.65 37.66 38.17 33.98 32.72 32.42 31.97 31.88 30.58 29.79 29.88 29.78 29.56 29.98 30.13 30.00
3.48 6.65 9.81 9.73 10.43 11.70 13.49 14.72 15.40 15.59 17.34 17.24 16.64 15.33 17.14 18.67 20.00 25.15 25.63 27.67 31.23 32.76 32.93 32.43 33.03 33.10 33.00 31.40 30.42 31.24 31.48 31.60 31.67 31.78 30.38 28.38 28.89 28.89 28.38 29.12 28.51 28.90 27.64
4.81 6.96 7.99 9.11 8.76 9.57 11.14 12.19 14.77 16.88 19.63 17.37 17.21 15.58 16.18 16.38 19.62 24.18 23.55 22.10 23.86 26.12 24.29 22.87 22.45 24.02 24.48 25.35 25.92 25.94 27.35 28.21 27.85 28.16 27.78 27.37 27.25 27.31 26.75 27.96 27.81 26.88 25.88
3.03 5.29 6.31 7.10 7.62 8.41 7.99 8.24 14.71 17.40 19.18 19.74 21.38 18.51 17.78 20.76 22.02 22.35 22.48 22.00 21.25 20.62 12.80 11.24 11.26 12.89 14.01 15.92 18.29 20.73 22.03 23.94 26.15 26.65 26.32 26.15 25.46 25.27 25.08 25.79 26.16 25.55 24.79
-1.84 2.54 4.36 5.20 5.63 5.18 5.26 4.96 3.95 8.07 14.56 15.89 17.51 18.50 18.77 19.47 19.40 19.48 18.98 17.81 18.15 13.05 6.91 6.73 6.68 7.54 8.65 10.25 11.81 12.98 13.68 16.02 19.31 21.39 23.72 24.85 24.88 24.56 24.17 23.90 24.13 24.04 23.56
-5.49 0.47 1.61 1.78 1.93 2.62 3.05 2.81 3.22 2.28 1.52 3.33 10.21 15.36 15.61 16.63 16.39 16.28 15.16 9.98 4.29 5.79 4.40 3.21 3.22 4.16 4.78 5.90 7.52 8.84 9.91 10.99 12.30 13.32 14.11 15.52 18.58 22.32 22.48 22.47 22.79 22.32 22.36
-3.59 -2.21 -1.88 -2.72 -4.15 -0.85 -1.12 0.62 0.72 0.77 0.32 0.86 2.70 6.18 8.85 11.87 12.31 11.60 10.45 1.59 0.28 0.20 1.29 1.51 1.81 1.85 2.19 3.16 4.16 5.66 6.47 6.35 7.31 8.42 9.01 10.07 11.65 13.78 14.39 15.50 18.12 19.19 20.04
-10.93 -3.39 -5.34 -9.66 -6.41 -5.23 -3.26 -2.70 -1.94 -1.83 -2.08 -1.93 -0.94 -1.09 5.74 1.88 -0.26 -0.37 0.51 -0.51 -1.14 -1.24 -0.58 -0.15 -0.00 0.11 0.05 0.36 1.19 2.27 2.75 2.76 3.04 4.24 5.48 6.50 7.85 9.26 9.80 11.15 12.14 13.21 13.88
-14.52 -12.38 -8.10 -12.66 -11.81 -11.78 -13.79 -11.00 -7.96 -8.38 -5.39 -4.47 -3.26 -0.20 10.01 -1.62 -2.02 -2.15 -1.89 -2.15 -2.86 -2.46 -2.31 -1.50 -1.85 -1.81 -2.06 -1.65 -1.12 -0.76 -0.10 0.28 0.98 1.56 2.50 3.52 4.91 4.79 6.69 8.19 9.18 10.03 10.66
-19.27 -18.61 -18.09 -19.05 -16.66 -11.71 -13.30 -13.55 -13.45 -10.24 -7.36 -6.19 -4.73 -3.05 5.14 -3.79 -4.14 -4.14 -4.06 -3.90 -3.83 -3.18 -2.46 -2.69 -3.06 -3.32 -3.47 -3.59 -3.00 -3.03 -2.51 -1.88 -0.78 -0.10 0.58 1.56 2.46 2.95 3.82 4.55 4.93 5.93 7.14
-20.41 -20.50 -20.14 -21.30 -21.33 -16.04 -16.30 -17.50 -17.30 -13.99 -8.92 -8.21 -6.98 -6.86 -6.44 -7.19 -6.93 -6.51 -6.81 -6.05 -6.00 -6.30 -4.75 -4.95 -4.94 -5.61 -4.78 -4.65 -3.47 -3.51 -4.24 -3.35 -1.91 -1.10 -0.82 0.11 0.84 1.34 1.78 1.66 2.11 2.45 2.80
-23.65 -23.36 -22.89 -23.18 -23.62 -22.57 -22.60 -19.82 -16.98 -13.58 -11.58 -11.89 -12.62 -10.03 -8.96 -9.22 -9.55 -9.10 -8.22 -7.74 -7.35 -8.28 -7.81 -7.54 -7.14 -8.11 -7.99 -7.84 -6.85 -6.05 -5.44 -2.84 -1.75 -1.73 -0.71 -0.38 0.18 0.49 0.38 0.16 0.58 0.68 1.31
-25.97 -24.51 -24.89 -24.18 -26.37 -26.08 -25.34 -22.93 -18.86 -21.01 -15.84 -12.85 -12.25 -11.91 -11.83 -11.32 -11.27 -11.13 -10.50 -9.79 -9.65 -10.43 -10.29 -9.34 -8.52 -9.36 -9.95 -10.56 -10.31 -10.13 -7.36 -3.76 -2.78 -1.23 -0.11 -1.18 -3.25 -3.29 -2.58 -2.27 -2.15 -1.74 -1.18
-23.96 -23.87 -24.63 -21.75 -15.65 -17.51 -18.55 -16.14 -14.39 -16.21 -16.62 -14.95 -15.00 -15.42 -15.25 -14.92 -14.13 -13.72 -13.13 -12.86 -12.25 -12.57 -13.20 -11.26 -11.43 -12.87 -12.31 -10.71 -10.34 -5.69 -4.01 -0.20 0.38 3.72 -3.47 -6.99 -9.20 -9.27 -9.11 -9.08 -7.98 -6.60 -5.43
MSLP
1022.40 1022.03 1021.63 1021.09 1020.76 1020.29 1019.85 1019.33 1018.82 1018.38 1017.87 1017.07 1016.02 1015.12 1014.22 1013.23 1012.05 1011.06 1010.12 1009.38 1009.08 1008.65 1008.34 1008.01 1007.49 1007.46 1007.48 1007.26 1007.22 1007.15 1007.12 1007.20 1006.33 1005.96 1006.33 1006.21 1006.87 1007.04 1007.17 1007.27 1007.53 1007.77 1007.97
1023.04 1022.40 1022.03 1021.76 1021.44 1021.09 1020.45 1019.78 1019.21 1018.42 1018.00 1017.47 1016.48 1015.47 1014.63 1013.90 1012.87 1011.78 1010.71 1009.68 1008.68 1008.22 1007.65 1007.30 1006.88 1006.92 1006.50 1006.28 1006.23 1005.94 1005.69 1005.77 1005.56 1004.85 1005.23 1005.59 1005.91 1006.17 1006.45 1006.97 1007.35 1007.58 1007.73
1023.76 1023.02 1022.39 1022.10 1021.86 1021.49 1020.96 1020.25 1019.47 1018.55 1018.32 1017.58 1016.60 1015.59 1014.52 1013.90 1013.07 1012.13 1011.26 1010.28 1009.62 1008.82 1007.75 1006.93 1006.40 1005.98 1005.46 1005.54 1005.30 1005.05 1004.84 1004.72 1003.58 1004.32 1004.26 1004.81 1005.46 1006.08 1006.66 1007.02 1006.98 1007.30 1007.43
1024.35 1023.83 1022.95 1022.67 1022.37 1021.83 1021.36 1020.69 1019.81 1019.22 1018.67 1017.77 1016.74 1015.78 1014.63 1013.75 1013.18 1012.52 1011.68 1011.05 1010.19 1009.25 1008.34 1007.50 1006.69 1005.60 1004.80 1004.80 1004.46 1004.25 1003.73 1003.64 1003.58 1003.36 1003.49 1004.27 1005.24 1006.05 1005.99 1006.86 1007.20 1007.06 1007.16
1024.83 1024.66 1024.01 1023.66 1023.18 1022.62 1021.78 1021.08 1020.33 1019.92 1018.79 1018.14 1016.92 1015.75 1014.71 1013.92 1013.06 1012.55 1012.05 1010.99 1010.03 1008.93 1008.18 1007.49 1006.78 1006.12 1005.56 1004.97 1004.35 1003.35 1003.12 1002.95 1002.91 1002.26 1003.33 1003.74 1004.78 1005.72 1005.80 1005.83 1006.47 1006.63 1006.88
1025.56 1025.22 1024.79 1024.41 1023.76 1022.97 1022.14 1021.43 1020.62 1019.87 1018.94 1018.14 1017.03 1015.77 1014.54 1013.55 1012.86 1012.40 1011.77 1010.79 1009.59 1008.84 1007.87 1006.99 1006.33 1005.79 1005.23 1004.86 1004.26 1003.72 1003.46 1003.10 1002.80 1002.72 1002.67 1003.45 1003.67 1004.44 1004.73 1004.94 1005.73 1006.53 1007.20
1026.19 1025.68 1025.24 1024.61 1023.90 1023.15 1022.78 1021.48 1020.58 1019.88 1019.04 1018.04 1016.78 1015.41 1014.24 1013.58 1012.99 1012.23 1011.25 1010.49 1009.49 1008.39 1007.60 1006.71 1005.97 1005.48 1005.04 1004.53 1003.95 1003.25 1002.85 1002.79 1002.57 1002.47 1002.53 1002.65 1002.83 1002.91 1003.55 1004.45 1004.57 1004.99 1005.26
1026.59 1025.92 1025.29 1024.63 1024.31 1023.65 1022.71 1021.56 1020.80 1019.97 1019.12 1017.94 1016.85 1015.52 1014.27 1013.39 1012.53 1011.65 1010.76 1009.96 1008.81 1007.80 1006.98 1006.24 1005.67 1005.03 1004.61 1004.18 1003.41 1002.78 1002.39 1002.21 1002.04 1001.98 1001.83 1001.76 1001.63 1001.66 1002.11 1002.59 1003.38 1004.44 1005.24
1027.06 1026.38 1025.71 1025.16 1024.60 1023.75 1022.71 1021.82 1021.00 1020.10 1019.14 1017.89 1016.75 1015.56 1014.24 1013.05 1012.17 1011.14 1010.19 1009.08 1007.95 1007.14 1006.40 1005.67 1005.22 1004.45 1003.98 1003.60 1002.99 1002.30 1001.94 1001.63 1001.68 1001.53 1001.22 1001.27 1000.97 1001.19 1001.39 1002.31 1003.15 1004.33 1004.96
1027.31 1026.83 1026.41 1025.80 1024.89 1023.89 1022.83 1021.53 1020.77 1020.06 1018.92 1017.80 1016.47 1015.33 1014.27 1012.74 1011.31 1010.16 1009.37 1008.58 1007.29 1006.25 1005.58 1005.06 1004.45 1004.01 1003.29 1002.82 1002.51 1002.03 1001.37 1001.10 1001.17 1001.40 1001.34 1001.01 1000.70 1000.75 1001.09 1001.25 1001.79 1002.78 1003.82
1028.38 1027.67 1026.88 1026.09 1025.11 1024.08 1023.13 1022.10 1021.10 1019.97 1018.91 1017.75 1016.48 1015.28 1014.01 1012.59 1011.08 1009.65 1008.67 1007.95 1007.00 1005.76 1004.94 1004.25 1003.59 1003.16 1002.69 1002.13 1001.42 1001.13 1000.79 1000.70 1000.54 1000.90 1001.29 1001.25 1001.29 1001.06 1000.78 1001.24 1001.40 1001.74 1002.38
1028.62 1027.92 1027.07 1025.96 1024.97 1024.09 1023.33 1022.38 1021.15 1019.82 1018.86 1017.96 1016.86 1015.34 1014.12 1012.91 1011.48 1009.50 1008.35 1007.29 1006.46 1005.57 1004.32 1003.61 1002.97 1002.51 1002.05 1001.38 1000.84 1000.19 1000.06 1000.41 1000.37 1000.57 1000.95 1001.28 1001.36 1001.43 1001.24 1001.24 1001.80 1001.78 1001.98
1029.04 1028.22 1027.13 1026.20 1025.39 1024.45 1023.41 1022.37 1021.26 1020.28 1019.10 1018.17 1017.19 1016.12 1014.76 1013.46 1011.82 1010.08 1008.39 1006.98 1006.18 1005.32 1004.19 1003.25 1002.59 1001.81 1001.42 1000.69 1000.39 1000.18 999.78 1000.09 1000.24 1000.28 1000.37 1000.85 1000.95 1001.11 1001.55 1001.56 1002.04 1002.22 1002.45
1029.54 1028.45 1027.34 1026.41 1025.31 1024.40 1023.64 1022.92 1022.04 1021.16 1020.16 1019.30 1018.27 1017.45 1016.26 1014.76 1013.21 1011.41 1010.08 1008.49 1006.70 1005.03 1004.13 1003.12 1002.58 1002.28 1001.83 1001.33 1001.05 1000.80 1000.35 1000.31 1000.51 1000.36 1000.45 1000.73 1000.94 1001.26 1001.40 1001.67 1002.05 1002.45 1002.84
1029.62 1028.64 1027.61 1026.68 1026.05 1025.40 1024.71 1024.01 1023.09 1022.47 1021.50 1020.56 1019.55 1018.90 1017.47 1016.16 1014.96 1013.49 1012.11 1010.35 1008.60 1007.15 1005.85 1005.18 1004.56 1003.84 1003.37 1003.20 1002.70 1002.34 1001.72 1001.28 1001.16 1001.16 1001.40 1001.55 1001.66 1001.79 1001.96 1002.08 1002.33 1002.70 1002.85
1029.95 1028.95 1028.08 1027.28 1026.61 1026.07 1025.58 1024.85 1024.01 1023.19 1022.31 1021.72 1020.67 1019.94 1018.73 1017.82 1016.34 1014.78 1013.61 1012.23 1010.49 1009.44 1008.70 1008.46 1008.08 1007.42 1006.48 1005.94 1005.56 1004.52 1003.62 1003.16 1002.80 1002.38 1002.05 1002.30 1002.56 1002.91 1002.99 1003.05 1003.09 1003.27 1003.53
1030.58 1029.75 1028.86 1028.11 1027.55 1027.00 1026.34 1025.68 1024.80 1023.64 1023.16 1022.54 1021.37 1020.36 1019.47 1018.52 1017.49 1016.27 1015.28 1014.19 1012.77 1011.53 1011.74 1011.53 1010.93 1010.49 1009.67 1008.68 1007.94 1007.43 1006.72 1005.79 1005.01 1004.45 1003.80 1003.70 1003.43 1003.65 1003.96 1003.97 1004.02 1004.17 1004.33
1031.05 1030.34 1029.74 1029.18 1028.68 1028.06 1027.28 1026.51 1025.85 1025.20 1024.27 1023.26 1022.19 1021.01 1020.61 1019.55 1018.66 1017.63 1017.03 1015.74 1014.43 1014.27 1014.63 1014.27 1013.69 1012.99 1012.26 1011.29 1010.34 1009.69 1008.98 1008.30 1007.67 1007.16 1006.66 1006.03 1005.39 1004.99 1005.11 1004.87 1004.66 1004.97 1005.07
1031.47 1030.89 1030.34 1029.80 1029.25 1028.61 1028.04 1027.49 1026.78 1026.13 1025.39 1024.40 1023.47 1022.46 1021.68 1021.02 1020.03 1019.26 1018.90 1018.40 1018.16 1017.60 1017.08 1016.37 1015.79 1015.14 1014.39 1013.60 1012.67 1011.89 1011.32 1010.85 1010.40 1009.50 1009.07 1008.54 1008.04 1007.25 1007.17 1006.68 1006.42 1006.27 1005.92
1031.89 1031.39 1030.74 1030.29 1029.93 1029.30 1028.79 1028.38 1027.85 1027.16 1026.38 1025.43 1024.81 1024.15 1022.59 1022.22 1021.16 1020.57 1020.35 1020.37 1019.98 1019.61 1019.04 1018.27 1017.62 1016.96 1016.19 1015.33 1014.63 1013.78 1013.10 1012.54 1012.14 1011.63 1011.34 1010.81 1010.30 1009.75 1009.14 1008.67 1008.58 1008.17 1007.87
1032.22 1031.83 1031.39 1030.94 1030.70 1030.37 1029.93 1029.42 1028.82 1028.28 1027.50 1026.62 1025.92 1025.34 1023.89 1023.89 1023.30 1022.58 1021.96 1021.73 1021.52 1020.91 1020.36 1019.74 1019.05 1018.39 1017.75 1016.87 1016.04 1015.52 1014.84 1014.38 1013.95 1013.45 1013.00 1012.50 1011.97 1011.36 1011.08 1010.51 1010.22 1009.88 1009.54
1032.50 1032.35 1032.07 1031.96 1031.28 1030.93 1030.61 1029.83 1029.52 1028.97 1028.44 1027.55 1026.62 1026.08 1025.21 1024.88 1024.47 1023.94 1023.38 1022.94 1022.56 1021.99 1021.45 1020.81 1020.10 1019.52 1018.87 1018.13 1017.47 1016.80 1016.28 1015.67 1015.17 1014.73 1014.25 1013.72 1013.20 1012.82 1012.39 1011.87 1011.47 1011.14 1010.81
1032.68 1032.60 1032.46 1032.02 1031.55 1031.16 1030.88 1030.32 1030.17 1029.39 1028.71 1028.10 1027.35 1026.76 1026.18 1025.79 1025.31 1024.81 1024.28 1023.73 1023.22 1022.65 1022.00 1021.49 1020.82 1020.25 1019.66 1019.08 1018.51 1017.96 1017.41 1016.80 1016.27 1015.79 1015.18 1014.53 1014.02 1013.62 1013.31 1012.91 1012.58 1012.23 1012.09
1032.88 1032.74 1032.62 1032.25 1031.82 1031.63 1031.37 1030.90 1030.22 1029.58 1029.03 1028.45 1027.88 1027.31 1026.78 1026.31 1025.80 1025.28 1024.72 1024.14 1023.54 1023.06 1022.51 1021.93 1021.30 1020.79 1020.23 1019.64 1019.04 1018.53 1018.10 1017.36 1016.71 1016.16 1015.66 1015.12 1014.63 1014.32 1014.03 1013.80 1013.59 1013.40 1013.09
1032.80 1032.63 1032.52 1032.42 1032.32 1032.00 1031.48 1031.00 1030.50 1029.91 1029.27 1028.70 1028.13 1027.64 1027.12 1026.59 1026.04 1025.45 1024.89 1024.30 1023.74 1023.31 1022.70 1022.09 1021.44 1020.87 1020.25 1019.72 1019.18 1018.71 1018.13 1017.48 1016.71 1016.08 1015.64 1015.46 1015.35 1015.08 1014.81 1014.59 1014.48 1014.20 1013.86
1032.53 1032.36 1032.15 1031.91 1031.56 1031.28 1031.09 1030.64 1030.19 1029.80 1029.42 1028.87 1028.36 1027.86 1027.33 1026.75 1026.16 1025.61 1025.07 1024.53 1023.95 1023.36 1022.77 1022.07 1021.47 1020.95 1020.34 1019.66 1019.07 1018.45 1017.87 1017.18 1016.21 1015.55 1015.59 1015.64 1015.49 1015.34 1015.18 1015.10 1015.00 1014.81 1014.56
Wind_Speed
11 11 10 10 11 10 9 11 11 12 13 13 13 14 14 14 14 15 13 13 14 14 13 14 16 15 12 11 11 11 11 12 15 11 10 7 6 9 5 5 5 6 5
11 11 11 11 12 11 11 12 12 13 13 14 13 14 13 13 14 14 15 15 13 13 13 14 16 11 16 15 12 14 14 15 13 18 11 7 10 7 4 4 3 3 4
13 13 12 12 13 13 14 13 12 13 14 14 13 14 15 15 15 14 14 14 14 16 15 14 15 14 14 12 14 13 13 12 12 12 11 2 2 2 2 1 3 3 3
13 13 13 14 16 15 15 15 14 13 14 14 14 14 14 15 15 15 15 15 15 14 14 14 16 15 15 13 13 15 13 12 12 11 12 7 3 1 2 2 3 1 2
13 12 13 14 14 14 14 14 15 14 13 14 15 14 13 12 10 15 18 17 17 18 14 13 14 14 17 14 11 13 13 12 10 6 4 2 3 2 5 4 4 2 2
11 12 13 13 14 14 14 15 15 15 14 14 14 14 14 10 18 22 20 16 17 18 17 16 13 12 15 16 15 12 11 9 8 3 3 4 5 5 4 4 4 4 4
11 12 13 13 14 14 14 14 15 16 16 16 15 14 15 16 22 24 24 15 15 14 17 16 13 9 9 11 16 15 12 12 14 8 6 7 5 9 7 4 5 4 4
12 13 13 14 15 14 14 14 14 13 15 15 16 17 16 14 25 27 26 17 14 14 14 13 13 14 12 12 11 11 10 8 6 5 8 6 9 6 9 7 7 4 4
12 13 14 14 15 15 15 16 15 15 15 15 15 18 19 19 28 28 25 16 14 15 12 13 13 13 14 17 11 10 10 8 6 10 10 12 10 11 11 8 6 5 3
15 16 15 15 14 15 15 16 15 14 15 13 17 16 18 19 26 28 24 13 15 12 13 11 14 16 17 17 10 9 10 8 5 2 2 1 2 7 14 4 8 7 4
13 13 13 13 13 13 14 13 13 13 13 12 15 14 16 18 21 29 28 15 12 12 11 9 8 16 16 18 17 8 10 3 6 4 2 1 1 3 3 2 3 4 4
12 13 13 13 11 10 12 11 12 12 11 12 13 13 12 15 26 28 29 28 24 15 13 9 10 16 19 20 16 12 12 7 4 4 4 3 3 2 2 4 4 4 3
12 11 10 11 10 10 11 12 11 12 11 13 13 14 14 14 15 33 35 25 22 14 9 12 18 19 20 14 12 11 6 4 4 5 6 4 2 4 5 5 6 8 8
10 10 9 9 12 12 10 10 10 11 11 11 12 13 13 14 16 16 15 15 19 11 11 7 8 8 11 9 6 7 4 3 1 2 0 2 4 4 4 2 4 5 6
8 8 9 9 10 11 10 10 9 10 13 11 11 11 13 14 17 25 21 15 13 15 13 11 12 10 10 10 8 8 7 6 4 3 3 3 3 4 3 3 3 2 3
7 7 8 8 8 8 8 9 15 19 20 22 24 20 11 24 31 31 27 31 30 26 12 12 12 12 12 12 12 10 10 11 7 5 5 5 5 5 4 3 3 3 4
7 7 7 7 7 8 8 8 10 12 18 21 24 27 28 27 31 32 29 26 33 24 14 12 12 13 12 12 11 11 12 11 12 10 8 6 5 5 4 4 4 3 3
6 7 5 6 6 6 7 7 7 9 10 12 18 21 28 27 28 31 32 21 16 18 12 12 11 12 12 12 11 12 12 12 12 11 11 10 9 6 4 4 4 3 4
5 5 5 4 4 5 4 6 6 7 8 9 11 16 17 25 24 26 27 12 12 12 11 11 11 11 11 11 10 10 11 11 11 10 11 11 11 9 8 8 7 7 4
4 7 4 3 4 5 5 6 6 7 7 7 8 11 11 12 12 12 11 11 10 9 10 10 10 10 10 10 10 10 9 10 10 10 10 9 9 9 8 8 8 6 6
3 4 7 4 4 4 3 4 4 4 5 6 6 10 23 9 9 10 10 9 9 9 10 9 9 9 9 9 9 9 9 8 9 9 8 8 8 8 7 7 7 6 6
2 3 3 3 3 5 4 3 3 3 5 6 7 8 20 7 8 8 8 8 8 8 8 8 7 8 8 9 9 8 8 8 8 8 8 7 7 7 7 6 6 6 6
2 3 3 3 2 4 4 4 3 3 5 6 6 7 7 7 7 7 7 7 7 8 7 7 7 7 7 8 7 7 8 8 8 7 7 7 6 6 6 6 6 6 5
2 2 2 3 3 3 3 3 4 5 5 5 5 6 6 7 7 7 7 7 7 7 7 7 6 7 8 8 7 6 6 7 7 7 8 6 6 7 6 6 6 6 5
1 1 2 2 3 3 3 3 4 4 4 5 6 6 6 7 7 7 7 7 7 7 8 8 7 9 10 13 10 10 10 13 11 11 5 3 5 6 5 4 5 5 5
2 2 3 2 3 3 3 4 4 4 5 6 5 6 6 6 7 7 7 7 7 8 8 7 8 10 12 10 10 14 14 14 12 9 1 2 2 2 2 2 4 3 4
Wind_Direction
6 358 358 1 354 349 350 348 342 333 333 329 328 325 323 322 324 318 294 280 265 260 255 255 246 239 242 239 235 233 231 231 248 249 244 228 207 222 218 212 194 200 192
357 359 358 357 355 345 344 343 337 335 331 325 326 327 325 322 322 318 319 318 291 278 270 257 250 248 249 241 240 239 236 233 242 251 238 226 221 216 228 197 187 187 199
351 354 357 356 352 345 340 336 335 337 326 320 324 324 327 324 324 320 314 323 326 321 312 285 269 263 251 249 244 243 244 242 241 245 249 239 204 149 127 85 179 170 185
352 349 354 352 346 342 335 334 333 332 321 320 319 318 321 322 319 316 322 317 309 305 307 306 312 289 256 254 253 251 247 246 243 239 238 223 166 132 134 197 229 232 194
352 344 348 342 336 330 331 329 329 318 319 314 312 309 313 313 313 318 313 309 306 304 299 298 299 303 311 307 288 263 246 247 250 227 232 140 157 169 193 171 217 116 205
343 339 339 335 329 330 329 327 323 321 320 315 313 311 312 309 316 310 301 298 300 299 296 295 293 292 300 306 298 283 266 276 269 187 185 206 205 200 183 184 148 149 235
340 338 334 333 331 330 323 324 324 323 320 317 314 313 314 311 307 302 299 294 291 287 290 293 291 285 279 288 295 286 275 257 243 249 236 219 197 203 162 180 170 182 198
342 339 337 339 329 324 324 326 321 321 319 317 314 314 310 306 307 306 301 295 288 281 279 279 277 282 277 272 280 281 272 257 246 230 234 234 237 182 189 183 181 128 66
345 339 338 336 328 330 330 326 320 319 318 319 317 314 315 309 307 305 303 300 290 281 275 269 272 275 274 272 271 269 268 257 242 257 253 253 231 203 166 131 143 167 162
347 339 330 327 326 326 322 326 323 318 314 315 319 313 307 311 312 307 304 297 292 290 281 271 259 265 277 270 262 257 263 255 210 240 287 287 225 181 173 197 160 180 130
330 325 323 319 319 319 321 317 314 314 313 314 335 336 326 326 320 315 306 297 292 290 284 285 283 284 285 281 267 232 243 198 205 180 171 104 38 132 127 104 138 170 153
330 326 319 320 329 331 326 324 327 330 341 341 341 339 339 333 333 327 314 305 295 294 283 280 285 284 288 290 284 254 231 201 172 172 173 182 177 154 111 102 94 86 63
325 312 319 329 334 340 345 347 349 351 350 352 352 344 342 340 340 344 336 313 302 296 286 283 286 292 295 294 285 271 232 186 194 192 194 186 158 127 113 99 91 91 77
307 320 334 342 349 355 356 354 352 353 354 356 356 348 345 344 346 345 348 343 328 304 300 310 356 19 29 35 22 18 19 19 311 295 132 109 123 138 135 128 125 127 107
325 334 349 352 355 350 355 351 353 353 1 355 3 352 350 353 354 351 1 357 354 7 18 18 15 16 19 13 15 16 17 17 29 40 42 50 63 82 70 54 87 69 101
336 347 351 350 352 352 348 341 351 360 7 10 5 14 358 3 3 5 10 18 24 27 31 23 16 13 18 14 6 4 17 13 8 32 58 69 66 58 58 53 51 62 89
345 334 342 350 348 347 346 347 344 345 357 6 7 16 10 10 10 13 13 18 28 34 31 19 20 12 9 14 15 11 7 9 9 14 27 36 59 70 65 61 57 54 77
332 326 341 335 336 339 343 342 343 347 346 344 358 6 8 11 16 18 16 11 20 23 24 17 12 11 8 10 12 13 12 12 16 16 16 16 15 29 38 54 67 83 82
339 333 337 325 315 327 328 338 344 344 344 346 344 352 12 2 15 20 21 25 15 12 9 11 12 8 8 6 9 12 17 16 11 17 18 15 13 22 23 20 19 27 64
330 329 334 330 329 335 343 346 346 346 344 351 351 341 1 353 4 10 17 13 12 8 1 5 4 5 4 7 4 7 13 17 16 14 12 13 12 14 18 21 15 13 17
331 337 340 347 351 335 335 339 333 331 334 342 348 335 6 3 356 1 5 8 2 1 358 357 360 2 359 1 6 4 10 13 11 10 9 7 7 14 9 13 12 15 11
6 338 350 343 328 348 335 321 327 333 332 337 344 342 359 359 355 354 356 358 354 351 353 349 354 356 357 356 357 360 359 3 5 2 -0 1 4 6 4 9 11 11 10
22 3 339 329 344 338 341 334 329 329 338 335 338 340 346 347 344 343 343 341 344 344 344 345 346 349 350 350 349 353 350 349 347 339 344 346 352 0 1 4 4 9 8
26 6 343 328 343 344 334 326 323 328 329 328 327 333 334 333 330 328 331 331 334 335 330 334 334 336 335 339 336 339 331 328 333 320 324 330 347 356 357 357 358 354 351
335 338 339 319 321 310 321 317 308 304 309 317 322 323 323 320 321 321 322 324 324 327 323 325 325 329 330 328 323 322 317 326 317 308 307 346 355 339 339 340 344 339 342
308 305 299 302 311 311 307 310 313 309 311 313 311 309 306 308 308 310 313 316 320 320 312 315 314 314 318 318 315 318 322 319 301 317 74 348 333 318 317 310 324 320 325